Location: Recife
(8.0585°S, 34.8848°W)
Time: 11:22:22
(UTC-03:00)

Vanguard 2 - Pass Details

Date: 21 April 2026
Orbit: 554 x 2894 km, 32.9° (Epoch: 7 May)

Event Time Altitude Azimuth Distance (km) Brightness Sun altitude
Rises 16:04:23 0° 335° (NNW) 3,449 11.5 16.1°
Reaches altitude 10° 16:06:58 10° 348° (NNW) 2,763 10.8 15.5°
Maximum altitude 16:12:40 27° 45° (NE) 2,299 9.8 14.1°
Drops below altitude 10° 16:21:05 10° 98° (E) 4,197 10.7 12.1°
Sets 16:26:01 0° 108° (ESE) 5,632 11.3 10.9°
